Windom, MN

8:55 PM CDT on April 28, 2017 (GMT -0500)
Windom Municipal

Weather History for KMWM - August, 2013

Change the Weather History Date:

Saturday, August 3, 2013

  Actual Average Record
Temperature  
Mean Temperature 64 °F -  
Max Temperature 77 °F 82 °F 98 °F (1955)
Min Temperature 50 °F 59 °F 44 °F (1978)
Degree Days  
Heating Degree Days 2    
Growing Degree Days 14 (Base 50)    
Moisture  
Dew Point 50 °F    
Average Humidity 66    
Maximum Humidity 94    
Minimum Humidity 34    
Precipitation  
Precipitation 0.00 in - - ()
Sea Level Pressure  
Sea Level Pressure 30.17 in    
Wind  
Wind Speed 3 mph (NNW)    
Max Wind Speed 10 mph    
Max Gust Speed -    
Visibility 10 miles    
Events      
Averages and records for this station are not official NWS values.
T = Trace of Precipitation, MM = Missing Value Source: NWS Daily Summary

Daily Weather History Graph

Daily Weather History Graph

Search for Another Location

Airport or City:

Trip Planner

Search our weather history database for the weather conditions in past years. The results will help you decide how hot, cold, wet, or windy it might be!

Date:

Astronomy

Aug. 03, 2013 Rise Set
Actual Time 6:11 AM CDT 8:41 PM CDT
Civil Twilight 5:38 AM CDT 9:13 PM CDT
Nautical Twilight 4:57 AM CDT 9:54 PM CDT
Astronomical Twilight 4:11 AM CDT 10:39 PM CDT
Moon 3:20 AM CDT (8/3) 6:25 PM CDT (8/3)
Length of Visible Light 15h 34m
Length of Day
14h 29m
Waning Crescent, 9% of the Moon is Illuminated
Aug 3
Waning Crescent
Aug 6
New
Aug 14
First Quarter
Aug 20
Full
Aug 28
Last Quarter

Hourly Weather History & Observations

Time (CDT) Temp. Dew Point Humidity Pressure Visibility Wind Dir Wind Speed Gust Speed Precip Events Conditions
12:13 AM 55.4 °F 51.8 °F 88% 30.10 in 10.0 mi Calm Calm - N/A   Clear
12:32 AM 55.4 °F 51.8 °F 88% 30.09 in 10.0 mi Calm Calm - N/A   Clear
12:52 AM 55.4 °F 53.6 °F 94% 30.10 in 10.0 mi Calm Calm - N/A   Clear
1:13 AM 53.6 °F 51.8 °F 94% 30.10 in 10.0 mi Calm Calm - N/A   Clear
1:32 AM 53.6 °F 51.8 °F 94% 30.10 in 10.0 mi Calm Calm - N/A   Clear
1:52 AM 53.6 °F 51.8 °F 94% 30.10 in 10.0 mi Calm Calm - N/A   Clear
2:13 AM 53.6 °F 50.0 °F 88% 30.10 in 10.0 mi Calm Calm - N/A   Clear
2:32 AM 55.4 °F 50.0 °F 82% 30.11 in 10.0 mi Calm Calm - N/A   Clear
2:52 AM 53.6 °F 48.2 °F 82% 30.10 in 10.0 mi Calm Calm - N/A   Clear
3:13 AM 51.8 °F 48.2 °F 88% 30.11 in 10.0 mi Calm Calm - N/A   Clear
3:32 AM 53.6 °F 48.2 °F 82% 30.11 in 10.0 mi Calm Calm - N/A   Clear
3:52 AM 51.8 °F 48.2 °F 88% 30.11 in 10.0 mi Calm Calm - N/A   Clear
4:13 AM 51.8 °F 48.2 °F 88% 30.11 in 10.0 mi Calm Calm - N/A   Clear
4:32 AM 51.8 °F 48.2 °F 88% 30.11 in 10.0 mi Calm Calm - N/A   Clear
4:52 AM 51.8 °F 48.2 °F 88% 30.11 in 10.0 mi Calm Calm - N/A   Clear
5:13 AM 51.8 °F 48.2 °F 88% 30.12 in 10.0 mi Calm Calm - N/A   Clear
5:32 AM 51.8 °F 48.2 °F 88% 30.12 in 10.0 mi Calm Calm - N/A   Clear
5:52 AM 51.8 °F 48.2 °F 88% 30.12 in 10.0 mi Calm Calm - N/A   Clear
6:13 AM 50.0 °F 46.4 °F 87% 30.14 in 10.0 mi Calm Calm - N/A   Clear
6:32 AM 50.0 °F 46.4 °F 87% 30.15 in 10.0 mi Calm Calm - N/A   Clear
6:52 AM 50.0 °F 46.4 °F 87% 30.14 in 10.0 mi Calm Calm - N/A   Clear
7:13 AM 53.6 °F 50.0 °F 88% 30.16 in 10.0 mi WNW 5.8 mph - N/A   Clear
7:32 AM 55.4 °F 51.8 °F 88% 30.17 in 10.0 mi WNW 4.6 mph - N/A   Clear
7:52 AM 57.2 °F 51.8 °F 82% 30.17 in 10.0 mi Calm Calm - N/A   Clear
8:13 AM 60.8 °F 53.6 °F 77% 30.18 in 10.0 mi WNW 3.5 mph - N/A   Clear
8:32 AM 62.6 °F 53.6 °F 72% 30.18 in 10.0 mi NW 3.5 mph - N/A   Clear
8:52 AM 64.4 °F 55.4 °F 73% 30.18 in 10.0 mi NNW 5.8 mph - N/A   Clear
9:12 AM 66.2 °F 53.6 °F 64% 30.18 in 10.0 mi NNW 5.8 mph - N/A   Clear
9:32 AM 66.2 °F 55.4 °F 68% 30.18 in 10.0 mi NW 4.6 mph - N/A   Clear
9:53 AM 68.0 °F 53.6 °F 60% 30.19 in 10.0 mi NW 8.1 mph - N/A   Clear
10:12 AM 69.8 °F 53.6 °F 56% 30.19 in 10.0 mi NNW 6.9 mph - N/A   Clear
10:32 AM 69.8 °F 53.6 °F 56% 30.20 in 10.0 mi NNW 6.9 mph - N/A   Clear
10:53 AM 69.8 °F 53.6 °F 56% 30.20 in 10.0 mi NNW 6.9 mph - N/A   Clear
11:13 AM 69.8 °F 53.6 °F 56% 30.20 in 10.0 mi North 6.9 mph - N/A   Clear
11:32 AM 69.8 °F 53.6 °F 56% 30.20 in 10.0 mi NW 5.8 mph - N/A   Clear
11:53 AM 69.8 °F 53.6 °F 56% 30.20 in 10.0 mi NW 4.6 mph - N/A   Clear
12:13 PM 71.6 °F 48.2 °F 43% 30.20 in 10.0 mi NNW 8.1 mph - N/A   Clear
12:32 PM 71.6 °F 50.0 °F 46% 30.21 in 10.0 mi NNW 6.9 mph - N/A   Clear
12:53 PM 71.6 °F 48.2 °F 43% 30.21 in 10.0 mi NW 8.1 mph - N/A   Clear
1:13 PM 73.4 °F 48.2 °F 41% 30.21 in 10.0 mi North 8.1 mph - N/A   Clear
1:32 PM 73.4 °F 48.2 °F 41% 30.21 in 10.0 mi North 6.9 mph - N/A   Clear
1:52 PM 73.4 °F 46.4 °F 38% 30.21 in 10.0 mi North 8.1 mph - N/A   Clear
2:13 PM 73.4 °F 46.4 °F 38% 30.21 in 10.0 mi North 8.1 mph - N/A   Clear
2:32 PM 75.2 °F 46.4 °F 36% 30.21 in 10.0 mi NW 6.9 mph - N/A   Clear
2:52 PM 75.2 °F 48.2 °F 38% 30.20 in 10.0 mi North 6.9 mph - N/A   Clear
3:13 PM 75.2 °F 48.2 °F 38% 30.20 in 10.0 mi NW 5.8 mph - N/A   Clear
3:32 PM 77.0 °F 48.2 °F 36% 30.20 in 10.0 mi WNW 5.8 mph - N/A   Clear
3:52 PM 77.0 °F 48.2 °F 36% 30.19 in 10.0 mi North 9.2 mph - N/A   Scattered Clouds
4:13 PM 77.0 °F 46.4 °F 34% 30.19 in 10.0 mi North 9.2 mph - N/A   Clear
4:32 PM 77.0 °F 46.4 °F 34% 30.19 in 10.0 mi NW 10.4 mph - N/A   Clear
4:52 PM 75.2 °F 46.4 °F 36% 30.19 in 10.0 mi Calm Calm - N/A   Scattered Clouds
5:12 PM 75.2 °F 48.2 °F 38% 30.18 in 10.0 mi North 4.6 mph - N/A   Scattered Clouds
5:32 PM 75.2 °F 48.2 °F 38% 30.18 in 10.0 mi NNW 9.2 mph - N/A   Clear
5:53 PM 73.4 °F 50.0 °F 44% 30.18 in 10.0 mi North 3.5 mph - N/A   Clear
6:12 PM 75.2 °F 50.0 °F 41% 30.18 in 10.0 mi NNW 10.4 mph - N/A   Scattered Clouds
6:32 PM 75.2 °F 48.2 °F 38% 30.18 in 10.0 mi NNW 8.1 mph - N/A   Clear
6:53 PM 73.4 °F 48.2 °F 41% 30.18 in 10.0 mi NNW 10.4 mph - N/A   Clear
7:12 PM 73.4 °F 50.0 °F 44% 30.17 in 10.0 mi NNW 6.9 mph - N/A   Clear
7:32 PM 73.4 °F 51.8 °F 47% 30.18 in 10.0 mi NNW 3.5 mph - N/A   Clear
7:53 PM 71.6 °F 51.8 °F 50% 30.19 in 10.0 mi NNW 4.6 mph - N/A   Clear
8:12 PM 68.0 °F 53.6 °F 60% 30.19 in 10.0 mi NNW 4.6 mph - N/A   Clear
8:32 PM 66.2 °F 53.6 °F 64% 30.19 in 10.0 mi NNW 6.9 mph - N/A   Clear
8:53 PM 62.6 °F 53.6 °F 72% 30.19 in 10.0 mi NNW 4.6 mph - N/A   Clear
9:12 PM 60.8 °F 51.8 °F 72% 30.19 in 10.0 mi NNW 5.8 mph - N/A   Clear
9:32 PM 59.0 °F 51.8 °F 77% 30.20 in 10.0 mi Calm Calm - N/A   Clear
9:53 PM 60.8 °F 51.8 °F 72% 30.21 in 10.0 mi Calm Calm - N/A   Clear
10:12 PM 57.2 °F 51.8 °F 82% 30.21 in 10.0 mi NNW 3.5 mph - N/A   Clear
10:32 PM 59.0 °F 51.8 °F 77% 30.22 in 10.0 mi Calm Calm - N/A   Clear
10:53 PM 57.2 °F 51.8 °F 82% 30.22 in 10.0 mi Calm Calm - N/A   Clear
11:12 PM 57.2 °F 51.8 °F 82% 30.22 in 10.0 mi Calm Calm - N/A   Clear
11:32 PM 57.2 °F 51.8 °F 82% 30.23 in 10.0 mi Calm Calm - N/A   Clear
11:53 PM 57.2 °F 50.0 °F 77% 30.23 in 10.0 mi Calm Calm - N/A   Clear